Location: Nelson
(41.2830°S, 173.2830°E)
Time: 19:32:58
(UTC+12:00)

Meteor 2-16 Rocket - Pass Details

Date: 14 May 2021
Orbit: 941 x 957 km, 82.6° (Epoch: 19 June)

Event Time Altitude Azimuth Distance (km) Brightness Sun altitude
Rises 19:24:16 0° 4° (N) 3,602 7.5 -23.5°
Reaches altitude 10° 19:26:46 10° 7° (N) 2,663 6.7 -24.0°
Maximum altitude 19:32:46 63° 87° (E) 1,059 4.3 -25.1°
Enters shadow 19:33:54 53° 132° (SE) 1,158 4.5 -25.3°
